Weather History for KN60 - October, 2013

Change the Weather History Date:

Wednesday, October 9, 2013

  Actual Average Record
Temperature  
Mean Temperature 51 °F -  
Max Temperature 67 °F 57 °F 84 °F (2003)
Min Temperature 34 °F 33 °F 28 °F (2014)
Degree Days  
Heating Degree Days 14    
Month to date heating degree days 141  
Growing Degree Days 1 (Base 50)    
Moisture  
Dew Point 36 °F    
Average Humidity 59    
Maximum Humidity 89    
Minimum Humidity 29    
Precipitation  
Precipitation 0.00 in - - ()
Month to date precipitation 0.00  
Year to date precipitation 25.56  
Sea Level Pressure  
Sea Level Pressure 30.01 in    
Wind  
Wind Speed 6 mph (NNW)    
Max Wind Speed 12 mph    
Max Gust Speed 15 mph    
Averages and records for this station are not official NWS values.
T = Trace of Precipitation, MM = Missing Value Source: NWS Daily Summary

Daily Weather History Graph

Daily Weather History Graph

Search for Another Location

Airport or City:

Trip Planner

Search our weather history database for the weather conditions in past years. The results will help you decide how hot, cold, wet, or windy it might be!

Date:

Astronomy

Oct. 09, 2013 Rise Set
Actual Time 7:56 AM CDT 7:08 PM CDT
Civil Twilight 7:25 AM CDT 7:39 PM CDT
Nautical Twilight 6:49 AM CDT 8:14 PM CDT
Astronomical Twilight 6:13 AM CDT 8:50 PM CDT
Moon 1:10 PM CDT (10/9) 10:28 PM CDT (10/9)
Length of Visible Light 12h 13m
Length of Day
11h 12m
Waxing Crescent, 25% of the Moon is Illuminated
Oct 9
Waxing Crescent
Oct 11
First Quarter
Oct 18
Full
Oct 26
Last Quarter
Nov 3
New

Hourly Weather History & Observations

Time (CDT) Temp. Windchill Dew Point Humidity Pressure Visibility Wind Dir Wind Speed Gust Speed Precip Events Conditions
12:52 AM 46.0 °F 42.5 °F 35.1 °F 66% 29.88 in - NNW 6.9 mph - N/A   Unknown
1:52 AM 43.0 °F 41.3 °F 35.1 °F 74% 29.89 in - NNW 3.5 mph - N/A   Unknown
2:52 AM 41.0 °F 36.4 °F 34.0 °F 76% 29.91 in - NW 6.9 mph - N/A   Unknown
3:52 AM 37.0 °F 34.5 °F 33.1 °F 86% 29.93 in - NW 3.5 mph - N/A   Unknown
4:52 AM 37.9 °F 32.7 °F 33.1 °F 83% 29.95 in - NW 6.9 mph - N/A   Unknown
5:52 AM 36.0 °F - 32.0 °F 86% 29.99 in - Calm Calm - N/A   Unknown
6:52 AM 39.0 °F 32.8 °F 34.0 °F 82% 29.99 in - NW 9.2 mph - N/A   Unknown
7:52 AM 39.0 °F 33.4 °F 33.1 °F 79% 30.02 in - NW 8.1 mph - N/A   Unknown
8:52 AM 42.1 °F 36.6 °F 35.1 °F 76% 30.03 in - NW 9.2 mph - N/A   Unknown
9:52 AM 48.0 °F - 37.0 °F 66% 30.05 in - NW 6.9 mph - N/A   Unknown
10:52 AM 57.9 °F - 37.0 °F 46% 30.05 in - Calm Calm - N/A   Unknown
11:52 AM 62.1 °F - 34.0 °F 35% 30.05 in - NW 6.9 mph - N/A   Unknown
12:52 PM 64.0 °F - 33.1 °F 31% 30.05 in - NNW 10.4 mph - N/A   Unknown
1:52 PM 64.0 °F - 33.1 °F 31% 30.05 in - NW 9.2 mph - N/A   Unknown
2:52 PM 66.0 °F - 33.1 °F 29% 30.04 in - NNW 9.2 mph - N/A   Unknown
3:52 PM 66.0 °F - 34.0 °F 30% 30.04 in - Variable 4.6 mph - N/A   Unknown
4:52 PM 66.0 °F - 36.0 °F 33% 30.03 in - NNE 6.9 mph - N/A   Unknown
5:52 PM 63.0 °F - 36.0 °F 37% 30.05 in - NNE 5.8 mph - N/A   Unknown
6:52 PM 57.0 °F - 39.0 °F 51% 30.05 in - NNE 4.6 mph - N/A   Unknown
7:52 PM 52.0 °F - 39.9 °F 63% 30.05 in - NNE 5.8 mph - N/A   Unknown
8:52 PM 53.1 °F - 39.9 °F 61% 30.04 in - NE 4.6 mph - N/A   Unknown
9:52 PM 54.0 °F - 39.0 °F 57% 30.03 in - Calm Calm - N/A   Unknown
10:52 PM 50.0 °F - 39.9 °F 68% 30.01 in - Calm Calm - N/A   Unknown
11:52 PM 46.9 °F - 39.9 °F 77% 30.01 in - Calm Calm - N/A   Unknown